Flag for U.S.A. Weather past 2 weeks in Sterling Heights, Michigan, U.S.A.

57 °F

Passing clouds.

Feels Like: 54 °F
Forecast: 35 / 53 °F
Wind: 16 mph from Southwest

Location: Selfridge Air National Guard Base

Current Time: Nov 26, 2015 at 8:41:29 PM

Latest Report: Nov 26, 2015 at 7:58 PM

Visibility: 10 mi

Pressure: 30.31 "Hg

Humidity: 66%

Dew point: 46 °F

Location of Sterling HeightsLocation

Historic Weather in Sterling Heights — Graph


Sterling Heights temperature yesterday

Maximum temperature yesterday: 49 °F (at 2:58 PM)
Minimum temperature yesterday: 27 °F (at 3:03 AM)
Average temperature yesterday: 39 °F

Past Weeks' High & Low Weather Summary

High67 °F (Nov 15, 2:58 PM)100% (Nov 17, 3:03 AM)30.48 "Hg (Nov 17, 3:03 AM)
Low20 °F (Nov 22, 7:58 PM)28% (Nov 20, 2:58 PM)29.33 "Hg (Nov 12, 7:58 AM)
Average43 °F71%30.08 "Hg
* Reported Nov 11 6:58 PM — Nov 26 6:58 PM, Sterling Heights, Weather by CustomWeather, © 2015

Note: Actual official high and low records may vary slightly from our data, if they occured in-between our weather recording intervals... More about our weather records


Sterling Heights weather history for previous 24 hours

Time TempWeatherWind HumidityBarometerVisibility
6:58 PM
Thu, Nov 26
57 °FOvercast.13 mph68%30.31 "Hg10 mi
5:58 PM56 °FOvercast.16 mph68%30.32 "Hg10 mi
4:58 PM55 °FPartly sunny.15 mph71%30.31 "Hg10 mi
3:58 PM58 °FPartly sunny.14 mph69%30.32 "Hg10 mi
2:58 PM56 °FOvercast.13 mph71%30.32 "Hg10 mi
1:58 PM56 °FBroken clouds.15 mph68%30.34 "Hg10 mi
12:58 PM56 °FScattered clouds.17 mph66%30.36 "Hg10 mi
11:58 AM53 °FOvercast.16 mph69%30.38 "Hg10 mi
10:58 AM51 °FOvercast.16 mph72%30.41 "Hg10 mi
9:58 AM48 °FOvercast.13 mph83%30.41 "Hg10 mi
8:58 AM49 °FPartly sunny.10 mph82%30.41 "Hg10 mi
8:02 AM45 °FLight rain. Overcast.8 mph93%30.39 "Hg10 mi
7:58 AM45 °FOvercast.8 mph89%30.40 "Hg10 mi
7:03 AM45 °FMostly cloudy.12 mph87%30.38 "Hg10 mi
6:58 AM45 °FLight rain. Overcast.13 mph83%30.39 "Hg10 mi
5:58 AM45 °FLight rain. Mostly cloudy.9 mph84%30.40 "Hg10 mi
5:04 AM46 °FPassing clouds.12 mph66%30.38 "Hg10 mi
4:58 AM48 °FLight rain. Partly cloudy.9 mph62%30.39 "Hg10 mi
3:58 AM48 °FPassing clouds.10 mph59%30.38 "Hg10 mi
2:58 AM47 °FMostly cloudy.10 mph60%30.38 "Hg10 mi
1:58 AM47 °FPassing clouds.9 mph58%30.37 "Hg10 mi
12:58 AM45 °FPassing clouds.13 mph62%30.37 "Hg10 mi
11:58 PM
Wed, Nov 25
43 °FPassing clouds.10 mph74%30.37 "Hg10 mi
10:58 PM42 °FPassing clouds.10 mph81%30.36 "Hg10 mi
9:58 PM42 °FClear.10 mph83%30.36 "Hg10 mi
8:58 PM44 °FClear.10 mph79%30.38 "Hg10 mi
Weather by CustomWeather, © 2015

See weather overviewHow to use our weather pages